User: anonymous   Login
Location: Unspecified
(0.0000°N, 0.0000°E)
Time: 00:53:27
(UTC+00:00)
Language:

IRIDIUM 158 - Orbit

View from above orbital plane
View from above orbital plane
View from above satellite
View from above satellite

Ground track
Ground track

The orbit is defined by the following mean orbital elements,

1 43571U          26145.51876788 +.00000000 +00000-0 +70802-4 0 00002
2 43571  86.3969  66.2340 0002340  84.5914 275.5549 14.34215181    01
Epoch (UTC): 25 May 2026 12:27:01
Eccentricity: 0.0002340
inclination: 86.3969°
perigee height: 776 km
apogee height: 779 km
right ascension of ascending node: 66.2340°
argument of perigee: 84.5914°
revolutions per day: 14.34215181
mean anomaly at epoch: 275.5549°

The dashed part of the orbit path shows where the satellite is in the earth's shadow,  

DLR